Location: Kawakawa
(35.3830°S, 174.0670°E)
Time: 16:41:27
(UTC+13:00)

Envisat - Pass Details

Date: 25 November 2019
Orbit: 764 x 766 km, 98.1° (Epoch: 07 December)

Event Time Altitude Azimuth Distance (km) Brightness Sun altitude
Rises 21:08:17 0° 182° (S) 3,269 6.8 -9.8°
Reaches altitude 10° 21:10:56 10° 194° (SSW) 2,334 6.3 -10.2°
Maximum altitude 21:15:06 25° 248° (WSW) 1,513 5.5 -10.9°
Drops below altitude 10° 21:19:13 10° 303° (WNW) 2,311 5.8 -11.6°
Sets 21:21:51 0° 315° (NW) 3,228 6.3 -12.0°
